[[{"header":{"parameterUnit":"m.s-1","parameterCategory":2,"la1":30.2991,"la2":30.254,"lo1":-89.0895,"lo2":-89.0444,"dy":0.0017,"dx":0.0017,"nx":28,"ny":28,"refTime":"2025-09-04T03:00:00:Z","depth":"0","parameterNumber":2,"parameterNumberName":"U-component_of_CURRENTS"},"data":[0,0,0,0,0,0,0,0,0,0,0,0,0,0,0,0,0,0,0,0,0,0,0,0,0,0,0,0,0,0,0,0,0,0,0,0,0,0,0,0,0,0,0,0,0,0,0,0,0,0,0,0,0,0,0,0,0,0,-0.2956,-0.2956,0,-0.295,-0.295,-0.2949,-0.2881,-0.288,-0.2878,-0.2877,-0.2801,-0.28,-0.28,0,0,0,0,0,0,0,0,0,0,0,0,0,-0.2867,-0.2869,-0.2956,-0.2956,-0.2957,-0.295,-0.295,-0.2949,-0.2881,-0.288,-0.2878,-0.2876,-0.2801,-0.28,-0.2799,0,0,0,0,0,0,0,0,0,0,0,0,0,-0.2884,-0.2869,-0.2956,-0.2925,-0.2923,-0.295,-0.295,-0.2949,-0.2881,-0.2879,-0.2877,-0.2876,-0.2802,-0.2801,-0.2799,-0.2832,0,0,-0.2796,-0.2795,0,0,0,0,0,0,0,0,-0.2883,-0.2886,-0.2929,-0.2927,-0.2925,-0.2918,-0.2891,-0.2908,-0.2882,-0.2893,-0.2877,-0.2875,-0.2838,-0.2834,-0.2832,-0.2828,-0.2825,-0.2796,-0.2795,-0.2794,-0.2794,0,0,0,0,0,0,0,-0.2882,-0.2886,-0.2949,-0.293,-0.2927,-0.2898,-0.2898,-0.2893,-0.2872,-0.2891,-0.2888,-0.2895,-0.2835,-0.2833,-0.2829,-0.2824,-0.2796,-0.2795,-0.2794,-0.2793,-0.2638,-0.2635,0,0,0,0,0,0,-0.2896,-0.2886,-0.295,-0.295,-0.2903,-0.2901,-0.2901,-0.2919,-0.2873,-0.2866,-0.2896,-0.2891,-0.2836,-0.2831,-0.2826,-0.2757,-0.2794,-0.2793,-0.2793,-0.2642,-0.2638,-0.2634,0,0,0,0,0,0,-0.2895,-0.2903,-0.295,-0.292,-0.2924,-0.2906,-0.2925,-0.292,-0.2912,-0.2879,-0.2869,-0.2894,-0.2834,-0.2828,-0.2788,-0.2757,-0.2793,-0.2792,-0.2646,-0.264,-0.2636,-0.2685,0,0,0,0,0,0,-0.2892,-0.2902,-0.2915,-0.2922,-0.2927,-0.2968,-0.2928,-0.2921,-0.2922,-0.2915,-0.2874,-0.2865,-0.2832,-0.279,-0.2787,-0.2756,-0.2791,-0.265,-0.2643,-0.2637,-0.2688,-0.2682,-0.2677,0,0,0,0,0,-0.2889,-0.2926,-0.2916,-0.2924,-0.2947,-0.297,-0.2969,-0.2945,-0.2924,-0.2928,-0.2873,-0.2866,-0.2744,-0.2788,-0.2785,-0.2753,-0.2653,-0.2645,-0.2638,-0.269,-0.2683,-0.2677,0,0,0,0,0,0,-0.2898,-0.2923,-0.2912,-0.2955,-0.296,-0.296,-0.297,-0.2955,-0.292,-0.2908,-0.286,-0.2847,-0.2788,-0.2759,-0.2807,-0.2675,-0.2683,-0.2675,-0.2723,-0.2717,-0.2712,-0.2712,-0.279,0,0,0,0,0,-0.2908,-0.2935,-0.2949,-0.2979,-0.2988,-0.2979,-0.2984,-0.2973,-0.295,-0.2934,-0.2901,-0.2833,-0.2757,-0.2731,-0.2679,-0.2645,-0.2606,-0.2601,-0.2596,-0.2593,-0.2581,-0.2508,-0.2497,-0.2609,-0.2609,-0.2609,0,0,-0.2919,-0.2937,-0.2951,-0.2981,-0.2983,-0.2985,-0.2975,-0.2996,-0.2964,-0.2933,-0.2883,-0.2835,-0.2741,-0.2675,-0.2644,-0.2651,-0.2535,-0.2583,-0.2582,-0.2571,-0.2499,-0.2489,-0.248,-0.2603,-0.2604,-0.2605,0,0,-0.2949,-0.2973,-0.2996,-0.2999,-0.3015,-0.3008,-0.3016,-0.3019,-0.2985,-0.2953,-0.288,-0.282,-0.2747,-0.2661,-0.2603,-0.2541,-0.2514,-0.2507,-0.2493,-0.2423,-0.2415,-0.2407,-0.2345,-0.2331,-0.2504,-0.2504,-0.2504,0,-0.2952,-0.2971,-0.3006,-0.3015,-0.2993,-0.3015,-0.2999,-0.2988,-0.2967,-0.2915,-0.2935,-0.2768,-0.2728,-0.2584,-0.2552,-0.2536,-0.2491,-0.2542,-0.2423,-0.2415,-0.2406,-0.2344,-0.2329,-0.2506,-0.2505,-0.2505,-0.2505,0,-0.2991,-0.2982,-0.2999,-0.2999,-0.2995,-0.2994,-0.2977,-0.2964,-0.2938,-0.2901,-0.2793,-0.2743,-0.263,-0.2602,-0.2566,-0.2451,-0.2438,-0.2438,-0.2461,-0.2399,-0.2336,-0.2319,-0.2508,-0.2507,-0.2507,-0.2506,0,0,-0.3014,-0.3017,-0.3013,-0.2954,-0.2967,-0.2946,-0.292,-0.2857,-0.2797,-0.2788,-0.2689,-0.2589,-0.2576,-0.2506,-0.2457,-0.2409,-0.2333,-0.2404,-0.2399,-0.238,-0.2176,-0.2103,-0.2078,-0.2322,-0.2319,-0.2317,-0.2159,0,-0.3,-0.2965,-0.2992,-0.2913,-0.2857,-0.2858,-0.2811,-0.2764,-0.2734,-0.2667,-0.2604,-0.2514,-0.2529,-0.2482,-0.2435,-0.2352,-0.2288,-0.2375,-0.2203,-0.2197,-0.2173,-0.2056,-0.1966,-0.1812,-0.2143,-0.214,-0.2138,0,-0.2977,-0.2945,-0.2864,-0.2765,-0.275,-0.2721,-0.261,-0.2582,-0.2522,-0.2501,-0.2446,-0.2426,-0.2333,-0.2378,-0.2227,-0.2282,-0.2222,-0.2181,-0.2174,-0.2076,-0.2092,-0.1919,-0.1769,-0.1765,-0.2112,-0.2114,-0.2116,0,-0.2844,-0.2818,-0.272,-0.2694,-0.2638,-0.258,-0.2553,-0.25,-0.2445,-0.2397,-0.2374,-0.2293,-0.2236,-0.2173,-0.2119,-0.2161,-0.1968,-0.2013,-0.1881,-0.1876,-0.1746,-0.1734,-0.16,-0.1887,-0.1887,-0.1888,-0.1888,0,-0.2724,-0.2647,-0.2643,-0.2566,-0.2433,-0.2456,-0.2332,-0.2308,-0.2294,-0.222,-0.2269,-0.2196,-0.2185,-0.2101,-0.2066,-0.1907,-0.1915,-0.1838,-0.1811,-0.1757,-0.1748,-0.1697,-0.1737,-0.1882,-0.1883,-0.1884,-0.1885,0,-0.2525,-0.2547,-0.2402,-0.2351,-0.2335,-0.2214,-0.2184,-0.213,-0.2154,-0.2074,-0.2065,-0.2074,-0.1974,-0.1952,-0.1831,-0.1801,-0.1646,-0.1629,-0.1574,-0.1542,-0.1433,-0.148,-0.1301,-0.1269,-0.1451,-0.1448,-0.1446,0,-0.2412,-0.2315,-0.2207,-0.2134,-0.2096,-0.1997,-0.1955,-0.1998,-0.1981,-0.1977,-0.1931,-0.1865,-0.177,-0.1593,-0.1535,-0.1424,-0.1474,-0.1293,-0.1353,-0.1369,-0.1401,-0.1462,-0.1454,-0.1201,-0.1197,-0.1193,-0.119,0,-0.2144,-0.2103,-0.1984,-0.1868,-0.179,-0.1728,-0.1698,-0.1675,-0.1754,-0.1701,-0.1625,-0.1559,-0.1454,-0.1297,-0.1214,-0.1164,-0.1269,-0.1215,-0.1227,-0.1168,-0.1224,-0.12,-0.1391,-0.1159,-0.1162,-0.1164,-0.1166,-0.1167,-0.193,-0.1782,-0.1667,-0.155,-0.15,-0.1475,-0.1381,-0.1413,-0.1338,-0.126,-0.1286,-0.1094,-0.1054,-0.0914,-0.0914,-0.0892,-0.099,-0.0888,-0.0934,-0.0988,-0.097,-0.1092,-0.0842,-0.0844,-0.0845,-0.0846,-0.0847,0,-0.1657,-0.1537,-0.1399,-0.1268,-0.1212,-0.1262,-0.1229,-0.1149,-0.1021,-0.0936,-0.0797,-0.055,-0.0504,-0.0562,-0.062,-0.0631,-0.0673,-0.0652,-0.0726,-0.0726,-0.0799,-0.0803,-0.0538,-0.0538,-0.0538,-0.0538,-0.0538,-0.0538,-0.149,-0.1278,-0.1225,-0.1042,-0.1002,-0.0876,-0.0831,-0.0724,-0.0626,-0.0349,-0.0151,-0.0043,-0.0144,-0.0361,-0.051,-0.053,-0.0576,-0.0546,-0.0612,-0.0694,-0.0721,-0.0748,-0.0759,-0.0489,-0.0489,-0.0503,-0.0503,-0.0503]},{"header":{"parameterUnit":"m.s-1","parameterCategory":2,"la1":30.2991,"la2":30.254,"lo1":-89.0895,"lo2":-89.0444,"dy":0.0017,"dx":0.0017,"nx":28,"ny":28,"refTime":"2025-09-04T03:00:00:Z","depth":"0","parameterNumber":3,"parameterNumberName":"V-component_of_CURRENTS"},"data":[0,0,0,0,0,0,0,0,0,0,0,0,0,0,0,0,0,0,0,0,0,0,0,0,0,0,0,0,0,0,0,0,0,0,0,0,0,0,0,0,0,0,0,0,0,0,0,0,0,0,0,0,0,0,0,0,0,0,-0.0741,-0.0739,0,-0.063,-0.0629,-0.0628,-0.0536,-0.0535,-0.0534,-0.0534,-0.0382,-0.0379,-0.0376,0,0,0,0,0,0,0,0,0,0,0,0,0,-0.0863,-0.0861,-0.0741,-0.0739,-0.0738,-0.063,-0.0629,-0.0627,-0.0537,-0.0535,-0.0534,-0.0533,-0.0383,-0.038,-0.0376,0,0,0,0,0,0,0,0,0,0,0,0,0,-0.0787,-0.086,-0.0741,-0.068,-0.0673,-0.0631,-0.0629,-0.0627,-0.0537,-0.0535,-0.0534,-0.0533,-0.0385,-0.038,-0.0375,-0.0375,0,0,-0.0361,-0.0359,0,0,0,0,0,0,0,0,-0.0791,-0.0782,-0.069,-0.0684,-0.0676,-0.0596,-0.0616,-0.0541,-0.0537,-0.0588,-0.0533,-0.0532,-0.0451,-0.0441,-0.0424,-0.0368,-0.0362,-0.0361,-0.0358,-0.0356,-0.0354,0,0,0,0,0,0,0,-0.0797,-0.0787,-0.0697,-0.0689,-0.068,-0.0654,-0.0642,-0.0602,-0.0528,-0.0584,-0.0577,-0.0565,-0.0447,-0.0428,-0.0419,-0.0359,-0.0361,-0.0357,-0.0354,-0.0352,-0.0233,-0.0232,0,0,0,0,0,0,-0.0812,-0.0792,-0.07,-0.0694,-0.0732,-0.0653,-0.064,-0.0623,-0.0529,-0.0514,-0.0567,-0.0561,-0.0437,-0.0425,-0.0414,-0.0369,-0.0356,-0.0351,-0.0349,-0.0233,-0.0233,-0.0232,0,0,0,0,0,0,-0.0815,-0.0805,-0.0705,-0.074,-0.0726,-0.0653,-0.0635,-0.0622,-0.0602,-0.0517,-0.05,-0.056,-0.0436,-0.042,-0.0375,-0.0364,-0.0349,-0.0345,-0.0233,-0.0233,-0.0232,-0.0304,0,0,0,0,0,0,-0.0819,-0.0807,-0.0807,-0.0741,-0.0724,-0.0696,-0.0636,-0.062,-0.0597,-0.0589,-0.0506,-0.049,-0.0433,-0.0383,-0.037,-0.0357,-0.0341,-0.0234,-0.0233,-0.0233,-0.0302,-0.0306,-0.031,0,0,0,0,0,-0.0824,-0.0834,-0.0807,-0.0796,-0.0724,-0.0697,-0.0687,-0.063,-0.0598,-0.0604,-0.0536,-0.0493,-0.0369,-0.0379,-0.0365,-0.035,-0.0234,-0.0233,-0.0233,-0.0301,-0.0306,-0.031,0,0,0,0,0,0,-0.0889,-0.0824,-0.0793,-0.0782,-0.0749,-0.0682,-0.068,-0.0642,-0.0594,-0.0583,-0.0498,-0.0479,-0.0435,-0.0387,-0.04,-0.0312,-0.0291,-0.0287,-0.0347,-0.0351,-0.0355,-0.0338,-0.0337,0,0,0,0,0,-0.0904,-0.0891,-0.0831,-0.0825,-0.0811,-0.0749,-0.0731,-0.0695,-0.0642,-0.0619,-0.056,-0.0488,-0.0422,-0.0385,-0.0334,-0.0293,-0.0233,-0.027,-0.0274,-0.0277,-0.0253,-0.0164,-0.0158,-0.023,-0.023,-0.023,0,0,-0.0929,-0.0891,-0.0884,-0.0839,-0.0805,-0.0785,-0.0735,-0.0719,-0.0685,-0.0612,-0.0561,-0.0512,-0.0418,-0.0367,-0.034,-0.0322,-0.0231,-0.0276,-0.028,-0.0253,-0.0163,-0.0156,-0.0149,-0.0229,-0.0229,-0.0229,0,0,-0.0977,-0.0939,-0.0945,-0.0916,-0.0875,-0.083,-0.0831,-0.0775,-0.0731,-0.069,-0.0614,-0.0558,-0.0477,-0.0394,-0.034,-0.0334,-0.0263,-0.0322,-0.0314,-0.023,-0.0223,-0.0216,-0.0158,-0.0145,-0.0312,-0.0312,-0.0312,0,-0.101,-0.0988,-0.0948,-0.0942,-0.0905,-0.0853,-0.0838,-0.0797,-0.0731,-0.068,-0.0685,-0.053,-0.0478,-0.0357,-0.0355,-0.034,-0.0289,-0.031,-0.0234,-0.0226,-0.0218,-0.0159,-0.0144,-0.0315,-0.0315,-0.0315,-0.0314,0,-0.1055,-0.1028,-0.1032,-0.0988,-0.0957,-0.0942,-0.0869,-0.0837,-0.0787,-0.0725,-0.0629,-0.056,-0.0452,-0.0437,-0.0392,-0.0294,-0.0279,-0.0263,-0.0227,-0.0215,-0.0155,-0.0138,-0.032,-0.0319,-0.0318,-0.0317,0,0,-0.1131,-0.1072,-0.1068,-0.1024,-0.0967,-0.0933,-0.0886,-0.0797,-0.0731,-0.0687,-0.0589,-0.05,-0.0458,-0.0393,-0.0334,-0.0265,-0.019,-0.0242,-0.0236,-0.0191,-0.0015,-0.0012,0.0007,-0.0162,-0.0159,-0.0156,-0.0008,0,-0.1164,-0.1138,-0.1101,-0.1051,-0.1011,-0.0936,-0.0881,-0.0797,-0.0724,-0.0633,-0.0537,-0.0446,-0.0437,-0.0389,-0.0318,-0.0213,-0.0143,-0.0232,-0.0026,-0.002,-0.0023,0.0028,0.0061,0.0197,0.0009,0.0012,0.0014,0,-0.1198,-0.1163,-0.1123,-0.1013,-0.0991,-0.0961,-0.0823,-0.0772,-0.0641,-0.0584,-0.0487,-0.0414,-0.0291,-0.0305,-0.0114,-0.0172,-0.0094,-0.0029,-0.0021,0.0029,0.0017,0.0163,0.0236,0.0314,0.0041,0.0039,0.0037,0,-0.1208,-0.1155,-0.1106,-0.1076,-0.0977,-0.093,-0.0874,-0.0754,-0.0683,-0.055,-0.0491,-0.0348,-0.0264,-0.0149,-0.0034,-0.006,0.0162,0.0146,0.0226,0.0226,0.0322,0.0325,0.0499,0.0288,0.0288,0.0287,0.0287,0,-0.1209,-0.1167,-0.1107,-0.1071,-0.0999,-0.0932,-0.0843,-0.0766,-0.0659,-0.0555,-0.0469,-0.0354,-0.022,-0.0084,0.0003,0.017,0.0197,0.0255,0.0282,0.0293,0.0291,0.0419,0.0431,0.0293,0.0292,0.0291,0.029,0,-0.1201,-0.1173,-0.1102,-0.1017,-0.0995,-0.0936,-0.0842,-0.0782,-0.0685,-0.055,-0.0508,-0.0336,-0.0159,-0.0036,0.0167,0.0228,0.0435,0.0423,0.0408,0.043,0.0554,0.0559,0.0765,0.0835,0.0546,0.0548,0.0549,0,-0.1197,-0.1156,-0.1069,-0.104,-0.1004,-0.0933,-0.0892,-0.08,-0.0736,-0.0518,-0.045,-0.0254,-0.0061,0.0204,0.0314,0.0476,0.0525,0.0595,0.0554,0.0596,0.0623,0.0609,0.0652,0.0647,0.0648,0.065,0.0651,0,-0.1152,-0.1115,-0.1051,-0.1015,-0.0974,-0.0922,-0.0854,-0.0805,-0.067,-0.0527,-0.0282,-0.01,0.0139,0.0361,0.0508,0.059,0.0654,0.0628,0.071,0.0758,0.0726,0.0792,0.0484,0.0664,0.0663,0.0662,0.0661,0.066,-0.1106,-0.1056,-0.0988,-0.0949,-0.0924,-0.0886,-0.0794,-0.072,-0.0569,-0.0289,-0.0144,0.0212,0.0459,0.0684,0.0711,0.0806,0.0772,0.0873,0.0887,0.0878,0.092,0.0615,0.0792,0.0791,0.0791,0.079,0.079,0,-0.1017,-0.097,-0.0937,-0.0867,-0.0833,-0.0836,-0.0741,-0.0615,-0.0397,-0.0149,0.0145,0.0635,0.083,0.0953,0.1042,0.1086,0.1079,0.112,0.1134,0.1176,0.0962,0.0939,0.111,0.111,0.111,0.111,0.111,0.111,-0.0956,-0.0881,-0.0872,-0.0789,-0.0749,-0.0616,-0.0531,-0.0359,-0.0155,0.0279,0.0633,0.0901,0.1154,0.126,0.1321,0.1317,0.1405,0.1365,0.142,0.1274,0.1252,0.1231,0.1215,0.1442,0.1443,0.1646,0.1648,0.1649]}],[{"header":{"parameterUnit":"m.s-1","parameterCategory":2,"la1":30.2991,"la2":30.254,"lo1":-89.0895,"lo2":-89.0444,"dy":0.0017,"dx":0.0017,"nx":28,"ny":28,"refTime":"2025-09-04T03:00:00:Z","depth":"2","parameterNumber":2,"parameterNumberName":"U-component_of_CURRENTS"},"data":[0,0,0,0,0,0,0,0,0,0,0,0,0,0,0,0,0,0,0,0,0,0,0,0,0,0,0,0,0,0,0,0,0,0,0,0,0,0,0,0,0,0,0,0,0,0,0,0,0,0,0,0,0,0,0,0,0,0,-0.1468,-0.1469,0,-0.1519,-0.1519,-0.152,-0.1521,-0.152,-0.1519,-0.1518,-0.1521,-0.1522,-0.1523,0,0,0,0,0,0,0,0,0,0,0,0,0,-0.144,-0.144,-0.1468,-0.1469,-0.1469,-0.1518,-0.1519,-0.152,-0.1521,-0.152,-0.1519,-0.1518,-0.1521,-0.1522,-0.1523,0,0,0,0,0,0,0,0,0,0,0,0,0,-0.147,-0.144,-0.1468,-0.1473,-0.1474,-0.1518,-0.1519,-0.1521,-0.1521,-0.152,-0.1518,-0.1517,-0.1521,-0.1522,-0.1523,-0.1559,0,0,-0.1528,-0.1528,0,0,0,0,0,0,0,0,-0.1468,-0.1471,-0.1472,-0.1473,-0.1474,-0.1509,-0.151,-0.153,-0.1521,-0.1506,-0.1518,-0.1516,-0.1512,-0.1514,-0.1531,-0.1559,-0.1559,-0.1528,-0.1529,-0.1529,-0.1529,0,0,0,0,0,0,0,-0.1466,-0.1469,-0.1491,-0.1472,-0.1473,-0.1495,-0.1498,-0.1515,-0.1517,-0.1507,-0.1507,-0.1508,-0.1512,-0.153,-0.1531,-0.1559,-0.1528,-0.1529,-0.153,-0.153,-0.1631,-0.1632,0,0,0,0,0,0,-0.1452,-0.1467,-0.1489,-0.1492,-0.1464,-0.1497,-0.15,-0.1502,-0.1518,-0.1519,-0.1509,-0.1508,-0.1528,-0.153,-0.1531,-0.1575,-0.1529,-0.153,-0.1531,-0.1629,-0.1631,-0.1633,0,0,0,0,0,0,-0.1451,-0.1453,-0.1487,-0.1478,-0.1484,-0.1498,-0.1501,-0.1503,-0.1518,-0.152,-0.152,-0.152,-0.1527,-0.1529,-0.1562,-0.1575,-0.1531,-0.1532,-0.1627,-0.1629,-0.1632,-0.1662,0,0,0,0,0,0,-0.145,-0.1453,-0.1453,-0.1478,-0.1484,-0.1523,-0.1502,-0.1505,-0.152,-0.1519,-0.1529,-0.1529,-0.1526,-0.156,-0.1563,-0.1576,-0.1533,-0.1624,-0.1628,-0.1631,-0.1659,-0.1665,-0.1671,0,0,0,0,0,-0.1449,-0.1458,-0.1452,-0.1455,-0.1482,-0.1524,-0.153,-0.1537,-0.1521,-0.1543,-0.1552,-0.1528,-0.1583,-0.1563,-0.1566,-0.1579,-0.1623,-0.1627,-0.1631,-0.1656,-0.1664,-0.1671,0,0,0,0,0,0,-0.1443,-0.1459,-0.1454,-0.1465,-0.1493,-0.1522,-0.1535,-0.1541,-0.1567,-0.1559,-0.1556,-0.1558,-0.159,-0.1591,-0.1568,-0.1622,-0.1598,-0.1603,-0.1615,-0.1623,-0.1629,-0.1622,-0.1535,0,0,0,0,0,-0.1441,-0.1453,-0.1474,-0.1485,-0.1494,-0.1515,-0.153,-0.154,-0.1563,-0.1572,-0.1588,-0.1599,-0.1613,-0.1621,-0.1641,-0.1673,-0.1643,-0.1685,-0.1691,-0.1696,-0.1695,-0.166,-0.1662,-0.1646,-0.1646,-0.1646,0,0,-0.1438,-0.1451,-0.1454,-0.1485,-0.15,-0.1536,-0.1522,-0.1551,-0.1584,-0.1569,-0.162,-0.1624,-0.1629,-0.1666,-0.1679,-0.1664,-0.1688,-0.1701,-0.1705,-0.1701,-0.1664,-0.1665,-0.1666,-0.1649,-0.1649,-0.1648,0,0,-0.145,-0.1451,-0.1467,-0.1501,-0.1531,-0.155,-0.1558,-0.1599,-0.1615,-0.1661,-0.1657,-0.167,-0.1707,-0.1713,-0.1715,-0.1769,-0.1723,-0.178,-0.1801,-0.1768,-0.1767,-0.1767,-0.1735,-0.1731,-0.1781,-0.1781,-0.1781,0,-0.1435,-0.1473,-0.1481,-0.1519,-0.1545,-0.1556,-0.1592,-0.1622,-0.1675,-0.1683,-0.1679,-0.1715,-0.1723,-0.1743,-0.1771,-0.1779,-0.1755,-0.1766,-0.1772,-0.177,-0.1769,-0.1736,-0.1732,-0.1783,-0.1782,-0.1782,-0.1782,0,-0.1483,-0.1509,-0.1525,-0.1571,-0.1601,-0.1641,-0.1674,-0.1709,-0.1718,-0.1733,-0.1757,-0.1771,-0.178,-0.1794,-0.1801,-0.181,-0.1794,-0.178,-0.1742,-0.1772,-0.1736,-0.1731,-0.1785,-0.1785,-0.1784,-0.1784,0,0,-0.1455,-0.1536,-0.1544,-0.157,-0.1636,-0.1661,-0.1713,-0.1751,-0.176,-0.1797,-0.18,-0.1839,-0.1822,-0.1827,-0.1832,-0.1819,-0.18,-0.1807,-0.1804,-0.1757,-0.1726,-0.1646,-0.1632,-0.1782,-0.1782,-0.1781,-0.1704,0,-0.1484,-0.1555,-0.1596,-0.1659,-0.169,-0.1727,-0.1768,-0.18,-0.1813,-0.1825,-0.1817,-0.1823,-0.184,-0.1834,-0.1828,-0.1808,-0.1788,-0.1822,-0.172,-0.1717,-0.1627,-0.1624,-0.1504,-0.1419,-0.1698,-0.1697,-0.1697,0,-0.1527,-0.1564,-0.1626,-0.1686,-0.1701,-0.1741,-0.1779,-0.1821,-0.1835,-0.1836,-0.1832,-0.1821,-0.1824,-0.1819,-0.1784,-0.1805,-0.1774,-0.1751,-0.1746,-0.1655,-0.1627,-0.1437,-0.1399,-0.1687,-0.1688,-0.1689,-0.1689,0,-0.1502,-0.1588,-0.1631,-0.1662,-0.1728,-0.1752,-0.1785,-0.1814,-0.1824,-0.1833,-0.1817,-0.1814,-0.1792,-0.1766,-0.1736,-0.1756,-0.1672,-0.1681,-0.1576,-0.157,-0.1439,-0.1422,-0.1635,-0.1635,-0.1636,-0.1636,-0.1636,0,-0.1521,-0.155,-0.1622,-0.1644,-0.1671,-0.1732,-0.1748,-0.1778,-0.1797,-0.1778,-0.1811,-0.1778,-0.1776,-0.1732,-0.1715,-0.162,-0.1645,-0.157,-0.1539,-0.1448,-0.1434,-0.1646,-0.1648,-0.1633,-0.1634,-0.1634,-0.1635,0,-0.1467,-0.1532,-0.1568,-0.1638,-0.1655,-0.1668,-0.1714,-0.1713,-0.1756,-0.173,-0.1727,-0.1735,-0.1672,-0.1654,-0.1592,-0.1566,-0.15,-0.1458,-0.1355,-0.1313,-0.143,-0.1436,-0.1332,-0.1329,-0.1326,-0.1323,-0.1321,0,-0.1429,-0.1457,-0.1528,-0.1535,-0.156,-0.1592,-0.1597,-0.1666,-0.1662,-0.1685,-0.1652,-0.1614,-0.1549,-0.1446,-0.1373,-0.1293,-0.1381,-0.1158,-0.1173,-0.1416,-0.1396,-0.1407,-0.1416,-0.1017,-0.1013,-0.1009,-0.1006,0,-0.1346,-0.1388,-0.1413,-0.1426,-0.1441,-0.1453,-0.1477,-0.1473,-0.1532,-0.1529,-0.1499,-0.146,-0.1358,-0.1209,-0.1115,-0.1067,-0.1167,-0.108,-0.1331,-0.1116,-0.1113,-0.1096,-0.1116,-0.0974,-0.0977,-0.0979,-0.0981,-0.0982,-0.1259,-0.1257,-0.1297,-0.1297,-0.1309,-0.1289,-0.1254,-0.1287,-0.1269,-0.1241,-0.1312,-0.1221,-0.1184,-0.0954,-0.0881,-0.0819,-0.0909,-0.0888,-0.0902,-0.0918,-0.09,-0.0891,-0.0707,-0.0709,-0.071,-0.0711,-0.0712,0,-0.1139,-0.1157,-0.1158,-0.1148,-0.11,-0.1156,-0.1139,-0.1083,-0.102,-0.1049,-0.1034,-0.0893,-0.0782,-0.0742,-0.0579,-0.0554,-0.0579,-0.0545,-0.0583,-0.0613,-0.0641,-0.0612,-0.034,-0.034,-0.0339,-0.0338,0,0,-0.1079,-0.1044,-0.1053,-0.094,-0.0923,-0.0821,-0.0787,-0.0738,-0.0728,-0.067,-0.0644,-0.0744,-0.0718,-0.0545,-0.0494,-0.0387,-0.0508,-0.0363,-0.0656,-0.073,-0.0758,-0.0821,-0.0807,0,0,0,0,0]},{"header":{"parameterUnit":"m.s-1","parameterCategory":2,"la1":30.2991,"la2":30.254,"lo1":-89.0895,"lo2":-89.0444,"dy":0.0017,"dx":0.0017,"nx":28,"ny":28,"refTime":"2025-09-04T03:00:00:Z","depth":"2","parameterNumber":3,"parameterNumberName":"V-component_of_CURRENTS"},"data":[0,0,0,0,0,0,0,0,0,0,0,0,0,0,0,0,0,0,0,0,0,0,0,0,0,0,0,0,0,0,0,0,0,0,0,0,0,0,0,0,0,0,0,0,0,0,0,0,0,0,0,0,0,0,0,0,0,0,-0.0231,-0.023,0,-0.0169,-0.0168,-0.0167,-0.0133,-0.0133,-0.0133,-0.0133,-0.0054,-0.0052,-0.005,0,0,0,0,0,0,0,0,0,0,0,0,0,-0.0289,-0.0288,-0.0231,-0.023,-0.023,-0.0169,-0.0168,-0.0167,-0.0133,-0.0133,-0.0133,-0.0133,-0.0055,-0.0053,-0.005,0,0,0,0,0,0,0,0,0,0,0,0,0,-0.0249,-0.0288,-0.0231,-0.0205,-0.0202,-0.0169,-0.0168,-0.0167,-0.0133,-0.0133,-0.0133,-0.0133,-0.0056,-0.0053,-0.005,-0.0035,0,0,-0.0041,-0.004,0,0,0,0,0,0,0,0,-0.0251,-0.0247,-0.021,-0.0207,-0.0204,-0.0158,-0.0159,-0.0122,-0.0133,-0.016,-0.0133,-0.0133,-0.0088,-0.0082,-0.0071,-0.0031,-0.0028,-0.0041,-0.0039,-0.0037,-0.0037,0,0,0,0,0,0,0,-0.0254,-0.0249,-0.0207,-0.0209,-0.0205,-0.0185,-0.018,-0.0152,-0.0125,-0.0157,-0.0155,-0.0147,-0.0086,-0.0074,-0.0069,-0.0027,-0.0041,-0.0038,-0.0036,-0.0035,0.0037,0.0037,0,0,0,0,0,0,-0.0263,-0.0252,-0.0209,-0.0205,-0.0227,-0.0185,-0.0178,-0.0173,-0.0126,-0.0118,-0.0148,-0.0146,-0.0079,-0.0073,-0.0066,-0.0048,-0.0037,-0.0035,-0.0033,0.0036,0.0037,0.0037,0,0,0,0,0,0,-0.0265,-0.026,-0.0211,-0.0227,-0.0219,-0.0184,-0.0178,-0.0172,-0.0161,-0.0118,-0.0111,-0.0143,-0.0079,-0.007,-0.0045,-0.0044,-0.0033,-0.0031,0.0036,0.0036,0.0037,-0.0009,0,0,0,0,0,0,-0.0267,-0.0261,-0.0262,-0.0227,-0.0219,-0.0199,-0.0178,-0.0171,-0.0157,-0.0154,-0.0112,-0.0105,-0.0078,-0.005,-0.0042,-0.004,-0.0028,0.0036,0.0036,0.0037,-0.0007,-0.001,-0.0013,0,0,0,0,0,-0.0269,-0.0272,-0.0262,-0.0257,-0.022,-0.0199,-0.0193,-0.0167,-0.0157,-0.0156,-0.0127,-0.0106,-0.0043,-0.0047,-0.0038,-0.0035,0.0036,0.0036,0.0037,-0.0006,-0.001,-0.0013,0,0,0,0,0,0,-0.0295,-0.0268,-0.0257,-0.025,-0.023,-0.0193,-0.0188,-0.0171,-0.0147,-0.0144,-0.0105,-0.0096,-0.0073,-0.0048,-0.0054,-0.0013,0.0001,0.0003,-0.0035,-0.0038,-0.004,-0.0047,-0.0026,0,0,0,0,0,-0.0302,-0.0299,-0.0268,-0.0264,-0.0255,-0.0223,-0.0211,-0.0195,-0.0168,-0.0157,-0.0128,-0.0095,-0.0064,-0.0048,-0.002,0.0002,0.0033,0.0011,0.0008,0.0006,0.0007,0.0053,0.0055,0.0037,0.0037,0.0037,0,0,-0.0311,-0.0296,-0.0294,-0.027,-0.0251,-0.0243,-0.0216,-0.0202,-0.0194,-0.0152,-0.0136,-0.0105,-0.0061,-0.0038,-0.0025,-0.0017,0.0026,0.0006,0.0004,0.0007,0.0054,0.0056,0.0057,0.0038,0.0038,0.0038,0,0,-0.0331,-0.0314,-0.032,-0.0307,-0.0284,-0.0261,-0.026,-0.0228,-0.0213,-0.0192,-0.0159,-0.0129,-0.0086,-0.0054,-0.0031,-0.0029,0.0009,-0.0021,-0.0036,0.0008,0.001,0.0012,0.0047,0.0052,-0.002,-0.002,-0.002,0,-0.0341,-0.0347,-0.0318,-0.0321,-0.0313,-0.0272,-0.0276,-0.0253,-0.0218,-0.0202,-0.0194,-0.0121,-0.0091,-0.0048,-0.0051,-0.0035,-0.0007,-0.003,0.0004,0.0007,0.001,0.0045,0.0052,-0.0022,-0.0022,-0.0022,-0.0022,0,-0.0371,-0.0371,-0.0374,-0.0363,-0.0348,-0.0347,-0.031,-0.0294,-0.0268,-0.0239,-0.0198,-0.0152,-0.0106,-0.0093,-0.0072,-0.0036,-0.0022,-0.0007,0.0009,0.0009,0.0046,0.0054,-0.0026,-0.0025,-0.0024,-0.0024,0,0,-0.0401,-0.0396,-0.0398,-0.0402,-0.0373,-0.0365,-0.0345,-0.0312,-0.0293,-0.0255,-0.0226,-0.0175,-0.0143,-0.0115,-0.008,-0.0044,-0.0007,-0.0023,-0.002,0.0006,0.0086,0.0098,0.0108,0.0014,0.0015,0.0016,0.0101,0,-0.0433,-0.0458,-0.0438,-0.045,-0.0457,-0.0413,-0.0395,-0.0357,-0.0315,-0.0276,-0.0216,-0.0175,-0.0152,-0.0129,-0.0089,-0.0025,0.0012,-0.0032,0.0088,0.0091,0.0098,0.0117,0.0102,0.0177,0.0109,0.011,0.0111,0,-0.0476,-0.0485,-0.051,-0.0496,-0.0492,-0.0488,-0.0446,-0.0424,-0.0351,-0.0315,-0.0257,-0.0204,-0.0141,-0.0123,-0.0013,-0.0042,0.0015,0.0064,0.0069,0.0103,0.0118,0.017,0.0194,0.0125,0.0124,0.0123,0.0122,0,-0.053,-0.0535,-0.0559,-0.0559,-0.0532,-0.0528,-0.0506,-0.0442,-0.0411,-0.0338,-0.03,-0.0217,-0.0165,-0.0086,0.0013,0.0003,0.0137,0.0139,0.0207,0.0208,0.023,0.0232,0.0219,0.0219,0.0218,0.0218,0.0218,0,-0.0581,-0.0597,-0.0591,-0.0606,-0.0618,-0.058,-0.0566,-0.0527,-0.0457,-0.0408,-0.0328,-0.0263,-0.0152,-0.0058,0.0017,0.0139,0.0145,0.0211,0.0236,0.0213,0.0212,0.0195,0.0191,0.0221,0.0221,0.022,0.0219,0,-0.0636,-0.0635,-0.0662,-0.0652,-0.0649,-0.066,-0.0614,-0.0592,-0.0521,-0.0452,-0.0427,-0.029,-0.0162,-0.005,0.0093,0.0152,0.0258,0.0299,0.026,0.0278,0.0296,0.0289,0.0382,0.0383,0.0384,0.0385,0.0386,0,-0.0661,-0.0688,-0.0706,-0.0719,-0.0718,-0.0718,-0.0706,-0.064,-0.06,-0.0458,-0.0422,-0.0278,-0.0155,0.0053,0.0176,0.0314,0.0309,0.0372,0.035,0.0301,0.0316,0.0306,0.0298,0.0362,0.0362,0.0363,0.0363,0,-0.0707,-0.0722,-0.0742,-0.0772,-0.0781,-0.0778,-0.0751,-0.0727,-0.0623,-0.0548,-0.0405,-0.0294,-0.0074,0.0093,0.0263,0.0336,0.0344,0.0385,0.0367,0.0315,0.0287,0.0299,0.0291,0.0367,0.0366,0.0366,0.0366,0.0366,-0.0731,-0.0763,-0.079,-0.0813,-0.0824,-0.0815,-0.0809,-0.075,-0.0679,-0.0526,-0.0415,-0.0225,-0.0073,0.0187,0.0301,0.0405,0.0404,0.0422,0.0419,0.0416,0.0391,0.0366,0.0455,0.0455,0.0455,0.0455,0.0455,0,-0.075,-0.0782,-0.0816,-0.0843,-0.0857,-0.0849,-0.0813,-0.0775,-0.069,-0.0508,-0.0361,-0.0181,0.0017,0.0182,0.0358,0.0448,0.043,0.0454,0.0414,0.041,0.0407,0.0379,0.0442,0.0442,0.0442,0.0442,0,0,-0.0756,-0.0799,-0.0819,-0.0851,-0.0868,-0.0866,-0.0846,-0.0772,-0.0638,-0.0461,-0.0302,-0.013,0.0068,0.0168,0.0284,0.0387,0.0374,0.0388,0.0391,0.0329,0.0325,0.0383,0.0336,0,0,0,0,0]}],[{"header":{"parameterUnit":"m.s-1","parameterCategory":2,"la1":30.2991,"la2":30.254,"lo1":-89.0895,"lo2":-89.0444,"dy":0.0017,"dx":0.0017,"nx":28,"ny":28,"refTime":"2025-09-04T03:00:00:Z","depth":"4","parameterNumber":2,"parameterNumberName":"U-component_of_CURRENTS"},"data":[0,0,0,0,0,0,0,0,0,0,0,0,0,0,0,0,0,0,0,0,0,0,0,0,0,0,0,0,0,0,0,0,0,0,0,0,0,0,0,0,0,0,0,0,0,0,0,0,0,0,0,0,0,0,0,0,0,0,-0.0973,-0.0974,0,-0.1025,-0.1025,-0.1026,-0.1047,-0.1046,-0.1046,-0.1046,-0.1093,-0.1094,-0.1095,0,0,0,0,0,0,0,0,0,0,0,0,0,-0.0912,-0.0913,-0.0973,-0.0974,-0.0975,-0.1025,-0.1025,-0.1026,-0.1047,-0.1046,-0.1046,-0.1046,-0.1092,-0.1094,-0.1095,0,0,0,0,0,0,0,0,0,0,0,0,0,-0.0948,-0.0913,-0.0973,-0.0991,-0.0993,-0.1025,-0.1026,-0.1026,-0.1047,-0.1046,-0.1046,-0.1046,-0.1092,-0.1094,-0.1096,-0.1111,0,0,-0.1102,-0.1102,0,0,0,0,0,0,0,0,-0.0946,-0.0951,-0.0988,-0.099,-0.0992,-0.1029,-0.1021,-0.1054,-0.1047,-0.1026,-0.1046,-0.1046,-0.1071,-0.1075,-0.1085,-0.1113,-0.1115,-0.1102,-0.1103,-0.1104,-0.1104,0,0,0,0,0,0,0,-0.0944,-0.0949,-0.0993,-0.0989,-0.0991,-0.1004,-0.1008,-0.1028,-0.1048,-0.1028,-0.1029,-0.1036,-0.1073,-0.1083,-0.1086,-0.1115,-0.1102,-0.1103,-0.1105,-0.1105,-0.121,-0.1212,0,0,0,0,0,0,-0.0937,-0.0946,-0.0992,-0.0995,-0.0969,-0.1005,-0.101,-0.1017,-0.1048,-0.1053,-0.1036,-0.1037,-0.1079,-0.1083,-0.1087,-0.1148,-0.1104,-0.1106,-0.1107,-0.1209,-0.121,-0.1212,0,0,0,0,0,0,-0.0936,-0.0941,-0.099,-0.0972,-0.0979,-0.1006,-0.1014,-0.1019,-0.1044,-0.1055,-0.1059,-0.1059,-0.1079,-0.1085,-0.1122,-0.1148,-0.1107,-0.1108,-0.1207,-0.1209,-0.1211,-0.1243,0,0,0,0,0,0,-0.0934,-0.094,-0.0951,-0.0972,-0.098,-0.1021,-0.1014,-0.102,-0.1048,-0.1049,-0.1076,-0.1079,-0.108,-0.112,-0.1124,-0.115,-0.111,-0.1205,-0.1208,-0.1211,-0.124,-0.1246,-0.1251,0,0,0,0,0,-0.0932,-0.0948,-0.0951,-0.0958,-0.0991,-0.1022,-0.1028,-0.1046,-0.1049,-0.1067,-0.1086,-0.1079,-0.1142,-0.1122,-0.1128,-0.1155,-0.1203,-0.1207,-0.121,-0.1237,-0.1245,-0.1251,0,0,0,0,0,0,-0.0928,-0.0952,-0.0956,-0.0979,-0.1004,-0.1026,-0.1047,-0.1057,-0.1087,-0.1093,-0.1098,-0.1103,-0.1146,-0.115,-0.1128,-0.1196,-0.1172,-0.1177,-0.1191,-0.1198,-0.1204,-0.1199,-0.1112,0,0,0,0,0,-0.0932,-0.0951,-0.0973,-0.0994,-0.1007,-0.103,-0.1047,-0.1061,-0.1085,-0.1099,-0.1116,-0.1139,-0.1164,-0.118,-0.1201,-0.1238,-0.1216,-0.1261,-0.1266,-0.1271,-0.1273,-0.1261,-0.1265,-0.1224,-0.1224,-0.1224,0,0,-0.0936,-0.0952,-0.0963,-0.0995,-0.1015,-0.1046,-0.1041,-0.1075,-0.1105,-0.1099,-0.1148,-0.1161,-0.1179,-0.1219,-0.1239,-0.1226,-0.1272,-0.1276,-0.1279,-0.1278,-0.1265,-0.1269,-0.1272,-0.1226,-0.1226,-0.1225,0,0,-0.0955,-0.097,-0.0993,-0.1017,-0.1052,-0.1069,-0.1083,-0.1116,-0.1136,-0.118,-0.1185,-0.1211,-0.1254,-0.1267,-0.1279,-0.1332,-0.1303,-0.1346,-0.1371,-0.136,-0.1363,-0.1365,-0.1334,-0.1333,-0.1348,-0.1348,-0.1348,0,-0.0959,-0.0992,-0.1006,-0.1037,-0.1062,-0.1082,-0.1117,-0.1143,-0.1185,-0.1201,-0.1203,-0.126,-0.1276,-0.1314,-0.1336,-0.1344,-0.1325,-0.1339,-0.1365,-0.1366,-0.1368,-0.1336,-0.1335,-0.135,-0.135,-0.135,-0.135,0,-0.0994,-0.1026,-0.1045,-0.1089,-0.1116,-0.1152,-0.1185,-0.1216,-0.124,-0.1258,-0.1304,-0.1321,-0.135,-0.1365,-0.1369,-0.1397,-0.1375,-0.137,-0.134,-0.1373,-0.1338,-0.1336,-0.1353,-0.1352,-0.1352,-0.1351,0,0,-0.0987,-0.1055,-0.1065,-0.1094,-0.1149,-0.1174,-0.1224,-0.1268,-0.1294,-0.1331,-0.1356,-0.1407,-0.1405,-0.142,-0.1425,-0.1422,-0.1418,-0.1407,-0.1405,-0.1363,-0.1378,-0.1278,-0.1265,-0.1413,-0.1414,-0.1414,-0.1345,0,-0.1012,-0.1077,-0.1106,-0.117,-0.1205,-0.1238,-0.128,-0.1319,-0.1347,-0.1374,-0.139,-0.1419,-0.143,-0.144,-0.1443,-0.1424,-0.1415,-0.1436,-0.1363,-0.1361,-0.1257,-0.1261,-0.1414,-0.1343,-0.1342,-0.1342,-0.1342,0,-0.1034,-0.1078,-0.1145,-0.121,-0.1228,-0.1269,-0.1326,-0.1364,-0.1401,-0.1418,-0.1441,-0.1446,-0.1462,-0.1457,-0.1438,-0.1449,-0.1423,-0.14,-0.1397,-0.129,-0.1257,-0.1307,-0.1337,-0.1337,-0.1338,-0.1338,-0.1338,0,-0.1019,-0.1102,-0.1158,-0.1183,-0.1259,-0.1294,-0.1333,-0.138,-0.1404,-0.1439,-0.1444,-0.1465,-0.1461,-0.1446,-0.1412,-0.1425,-0.1362,-0.137,-0.1252,-0.1244,-0.134,-0.1339,-0.1349,-0.1349,-0.1349,-0.135,-0.135,0,-0.1022,-0.1066,-0.116,-0.1187,-0.1245,-0.1298,-0.1347,-0.1383,-0.1421,-0.1423,-0.1464,-0.1447,-0.1458,-0.1423,-0.1401,-0.1306,-0.1353,-0.1247,-0.1219,-0.1355,-0.1357,-0.1337,-0.1337,-0.1347,-0.1347,-0.1348,-0.1348,0,-0.0982,-0.105,-0.1113,-0.1207,-0.1238,-0.1275,-0.1348,-0.1363,-0.1417,-0.1413,-0.1421,-0.1429,-0.1369,-0.1357,-0.1307,-0.1268,-0.1204,-0.1161,-0.1289,-0.1271,-0.1097,-0.11,-0.1019,-0.1015,-0.1012,-0.1009,-0.1006,0,-0.0959,-0.0996,-0.1109,-0.1139,-0.1183,-0.1248,-0.1274,-0.1348,-0.135,-0.1376,-0.1347,-0.132,-0.1304,-0.1149,-0.1159,-0.109,-0.1083,-0.1054,-0.1098,-0.1082,-0.1063,-0.1071,-0.1078,-0.1001,-0.1,-0.0999,-0.0998,0,-0.0908,-0.0964,-0.1012,-0.1076,-0.1122,-0.1157,-0.1199,-0.1199,-0.1248,-0.1313,-0.1232,-0.1188,-0.1108,-0.1059,-0.1006,-0.0968,-0.1079,-0.1018,-0.1025,-0.1067,-0.1059,-0.1045,-0.1056,-0.0986,-0.0988,-0.0989,-0.099,0,-0.086,-0.088,-0.0949,-0.099,-0.1037,-0.1029,-0.1079,-0.1068,-0.1087,-0.1127,-0.1089,-0.1061,-0.1077,-0.0991,-0.0945,-0.0893,-0.0887,-0.0879,-0.0894,-0.0908,-0.0904,-0.088,-0.0716,0,0,0,0,0,-0.0797,-0.0809,-0.0848,-0.0879,-0.0914,-0.0934,-0.0997,-0.1042,-0.1101,-0.1011,-0.1051,-0.0972,-0.0891,-0.0887,-0.0805,-0.0888,-0.0891,-0.0792,-0.0891,-0.0919,-0.0933,-0.0939,0,0,0,0,0,0,-0.0756,-0.0792,-0.0813,-0.0763,-0.0753,-0.0769,-0.0804,-0.0853,-0.082,-0.0889,-0.0846,-0.0903,-0.0836,-0.0896,-0.0773,-0.0773,-0.0816,-0.0795,-0.0792,-0.0911,-0.0924,-0.0935,-0.0947,0,0,0,0,0]},{"header":{"parameterUnit":"m.s-1","parameterCategory":2,"la1":30.2991,"la2":30.254,"lo1":-89.0895,"lo2":-89.0444,"dy":0.0017,"dx":0.0017,"nx":28,"ny":28,"refTime":"2025-09-04T03:00:00:Z","depth":"4","parameterNumber":3,"parameterNumberName":"V-component_of_CURRENTS"},"data":[0,0,0,0,0,0,0,0,0,0,0,0,0,0,0,0,0,0,0,0,0,0,0,0,0,0,0,0,0,0,0,0,0,0,0,0,0,0,0,0,0,0,0,0,0,0,0,0,0,0,0,0,0,0,0,0,0,0,-0.0142,-0.0142,0,-0.01,-0.0099,-0.0099,-0.0082,-0.0082,-0.0082,-0.0082,-0.0023,-0.0022,-0.002,0,0,0,0,0,0,0,0,0,0,0,0,0,-0.0178,-0.0177,-0.0142,-0.0142,-0.0141,-0.01,-0.0099,-0.0099,-0.0082,-0.0082,-0.0082,-0.0082,-0.0024,-0.0022,-0.002,0,0,0,0,0,0,0,0,0,0,0,0,0,-0.0152,-0.0177,-0.0142,-0.0128,-0.0126,-0.01,-0.0099,-0.0099,-0.0082,-0.0082,-0.0082,-0.0082,-0.0025,-0.0022,-0.002,-0.0001,0,0,-0.0012,-0.0011,0,0,0,0,0,0,0,0,-0.0153,-0.015,-0.013,-0.0129,-0.0127,-0.0096,-0.009,-0.0065,-0.0082,-0.0098,-0.0082,-0.0082,-0.0046,-0.0042,-0.0034,0.0002,0.0004,-0.0012,-0.001,-0.0009,-0.0009,0,0,0,0,0,0,0,-0.0155,-0.0152,-0.0125,-0.013,-0.0128,-0.0113,-0.011,-0.0085,-0.0071,-0.0097,-0.0096,-0.0091,-0.0045,-0.0036,-0.0032,0.0005,-0.0012,-0.001,-0.0008,-0.0007,0.0072,0.0072,0,0,0,0,0,0,-0.0162,-0.0154,-0.0127,-0.0124,-0.0141,-0.0112,-0.0109,-0.0106,-0.0072,-0.0067,-0.0091,-0.009,-0.004,-0.0035,-0.003,-0.0008,-0.0009,-0.0007,-0.0005,0.0071,0.0072,0.0073,0,0,0,0,0,0,-0.0163,-0.016,-0.0128,-0.0138,-0.0133,-0.0112,-0.0109,-0.0105,-0.0099,-0.0068,-0.0063,-0.0089,-0.004,-0.0033,-0.0009,-0.0005,-0.0006,-0.0004,0.007,0.0071,0.0072,0.0038,0,0,0,0,0,0,-0.0164,-0.0161,-0.0163,-0.0138,-0.0133,-0.0117,-0.0108,-0.0104,-0.0096,-0.0095,-0.0064,-0.0059,-0.004,-0.0013,-0.0006,-0.0002,-0.0002,0.007,0.0071,0.0072,0.0038,0.0037,0.0037,0,0,0,0,0,-0.0165,-0.0167,-0.0164,-0.016,-0.0136,-0.0117,-0.0113,-0.0098,-0.0095,-0.0093,-0.0071,-0.006,-0.0001,-0.001,-0.0003,0.0002,0.0069,0.0071,0.0072,0.0038,0.0037,0.0037,0,0,0,0,0,0,-0.0183,-0.0165,-0.0161,-0.0157,-0.0141,-0.0114,-0.0111,-0.0101,-0.0081,-0.0082,-0.0054,-0.0047,-0.0023,-0.0003,-0.0014,0.003,0.0037,0.004,0.0009,0.0009,0.0008,-0.0003,0.0001,0,0,0,0,0,-0.0188,-0.0186,-0.0165,-0.0163,-0.0156,-0.0135,-0.0127,-0.0117,-0.0095,-0.0088,-0.0065,-0.0037,-0.001,0.0003,0.0029,0.0052,0.0068,0.0062,0.0062,0.0061,0.0059,0.0085,0.0086,0.0077,0.0077,0.0077,0,0,-0.0195,-0.0184,-0.0184,-0.0166,-0.0154,-0.0147,-0.013,-0.012,-0.0113,-0.0083,-0.0067,-0.004,-0.0005,0.002,0.0033,0.0036,0.0072,0.0062,0.0061,0.006,0.0086,0.0087,0.0088,0.0078,0.0078,0.0078,0,0,-0.0207,-0.0198,-0.0202,-0.019,-0.0174,-0.0158,-0.0158,-0.0133,-0.0121,-0.01,-0.0076,-0.0049,-0.0009,0.0017,0.0036,0.0049,0.0066,0.0059,0.0047,0.0072,0.0073,0.0073,0.0088,0.0091,0.0059,0.0059,0.0059,0,-0.0217,-0.022,-0.0199,-0.0199,-0.0193,-0.0166,-0.0169,-0.0149,-0.0119,-0.0107,-0.01,-0.0037,-0.001,0.0024,0.0029,0.0046,0.0059,0.0043,0.0069,0.007,0.0071,0.0087,0.009,0.0058,0.0058,0.0058,0.0058,0,-0.0233,-0.0235,-0.0235,-0.0228,-0.0216,-0.0214,-0.0185,-0.0171,-0.0153,-0.0131,-0.0095,-0.0055,-0.0019,-0.0002,0.0017,0.0044,0.0049,0.0062,0.0065,0.007,0.0086,0.009,0.0056,0.0056,0.0057,0.0057,0,0,-0.0256,-0.025,-0.0252,-0.0258,-0.0234,-0.0228,-0.021,-0.0186,-0.0175,-0.0139,-0.0121,-0.007,-0.0047,-0.0024,0.0007,0.0032,0.0051,0.0047,0.0049,0.0051,0.0098,0.0091,0.0094,0.0065,0.0066,0.0066,0.0104,0,-0.0279,-0.0297,-0.0279,-0.0289,-0.0296,-0.0262,-0.0248,-0.022,-0.0189,-0.0161,-0.0112,-0.0082,-0.0055,-0.0039,-0.0009,0.0039,0.006,0.0039,0.0104,0.0105,0.0089,0.0098,0.0068,0.0106,0.0107,0.0108,0.0108,0,-0.0304,-0.0314,-0.0337,-0.0329,-0.0327,-0.0326,-0.03,-0.0281,-0.0228,-0.0201,-0.0159,-0.0117,-0.0068,-0.005,0.0026,0.001,0.0049,0.0084,0.0086,0.0093,0.0105,0.0105,0.0115,0.0115,0.0114,0.0114,0.0113,0,-0.0347,-0.0352,-0.0376,-0.0375,-0.036,-0.0361,-0.0347,-0.0302,-0.0282,-0.0229,-0.0206,-0.0143,-0.0107,-0.0051,0.0027,0.0025,0.0107,0.0115,0.0143,0.0143,0.0152,0.0151,0.0162,0.0162,0.0162,0.0162,0.0162,0,-0.0379,-0.0398,-0.0405,-0.0419,-0.0442,-0.0409,-0.0411,-0.0382,-0.0333,-0.0304,-0.0236,-0.0194,-0.0104,-0.004,0.0018,0.0092,0.0101,0.0141,0.0154,0.0137,0.0134,0.0155,0.0153,0.0163,0.0163,0.0163,0.0163,0,-0.042,-0.0425,-0.0457,-0.0463,-0.0467,-0.0485,-0.0462,-0.0452,-0.0399,-0.0358,-0.034,-0.0233,-0.0144,-0.0057,0.0044,0.0082,0.0151,0.0174,0.0144,0.0155,0.017,0.0167,0.0204,0.0204,0.0204,0.0204,0.0204,0,-0.0441,-0.0466,-0.0503,-0.0526,-0.0535,-0.055,-0.0551,-0.0502,-0.0475,-0.0375,-0.0352,-0.0251,-0.0176,-0.0041,0.0047,0.015,0.0166,0.0189,0.0184,0.0166,0.0175,0.0172,0.0168,0.0204,0.0204,0.0204,0.0204,0,-0.048,-0.0503,-0.053,-0.0583,-0.0606,-0.0617,-0.0608,-0.0589,-0.051,-0.0468,-0.0352,-0.0256,-0.0151,-0.0038,0.0044,0.0119,0.0166,0.019,0.0191,0.0186,0.0167,0.0175,0.0172,0.0204,0.0204,0.0204,0.0204,0,-0.0509,-0.0545,-0.0585,-0.0625,-0.0659,-0.0661,-0.0653,-0.0598,-0.0557,-0.0432,-0.0397,-0.026,-0.0176,-0.0053,0.0025,0.0095,0.0111,0.0121,0.0125,0.0126,0.0093,0.0057,0.0071,0,0,0,0,0,-0.0527,-0.0567,-0.0614,-0.0657,-0.0689,-0.07,-0.0673,-0.0644,-0.057,-0.0496,-0.0438,-0.0331,-0.0176,-0.0098,-0.003,0.0008,0.0105,0.0088,0.0113,0.0206,0.0205,0.018,0,0,0,0,0,0,-0.0539,-0.0595,-0.0619,-0.0667,-0.0696,-0.0719,-0.07,-0.0651,-0.0591,-0.0507,-0.0421,-0.0343,-0.0196,-0.0228,-0.0041,-0.0015,0.0005,0.017,0.0171,0.0206,0.0206,0.0205,0.0179,0,0,0,0,0]}]]